| time (UTC) | temp F | wind direction | speed MPH | gust MPH | rain 1hr in | rain 24hr in | rain mn in | humidity % | barometer mb |
| 20260510043026 | 56 | 300 | 1.0 | 3.0 | 0.00 | 0.21 | 0.00 | 1 | 1001.4 |
| 20260510042026 | 56 | 293 | 1.0 | 3.0 | 0.00 | 0.21 | 0.00 | 1 | 1001.0 |
| 20260510041026 | 55 | 210 | 3.0 | 7.0 | 0.00 | 0.21 | 0.00 | 1 | 1000.9 |
| 20260510040145 | 55 | 158 | 0.0 | 1.0 | 0.00 | 0.21 | 0.00 | 1 | 1000.9 |
| 20260510035053 | 55 | 135 | 1.0 | 3.0 | 0.00 | 0.21 | 0.21 | 1 | 1000.7 |
| 20260510034053 | 54 | 0.0 | 0.0 | 0.00 | 0.21 | 0.21 | 1 | 1000.4 | |
| 20260510033022 | 55 | 135 | 0.0 | 1.0 | 0.00 | 0.21 | 0.21 | 2 | 1000.3 |
| 20260510032041 | 55 | 174 | 0.0 | 3.0 | 0.00 | 0.21 | 0.21 | 3 | 1000.4 |
| 20260510031049 | 55 | 208 | 1.0 | 5.0 | 0.00 | 0.21 | 0.21 | 6 | 1000.1 |
| 20260510030049 | 55 | 179 | 1.0 | 3.0 | 0.00 | 0.21 | 0.21 | 8 | 1000.1 |
| 20260510025048 | 55 | 90 | 0.0 | 1.0 | 0.00 | 0.21 | 0.21 | 11 | 1000.1 |
| 20260510024047 | 55 | 90 | 0.0 | 1.0 | 0.00 | 0.21 | 0.21 | 12 | 999.8 |
| 20260510023016 | 56 | 84 | 1.0 | 3.0 | 0.00 | 0.21 | 0.21 | 13 | 1000.0 |
| 20260510022045 | 56 | 191 | 1.0 | 3.0 | 0.00 | 0.21 | 0.21 | 13 | 1000.0 |
| 20260510021124 | 56 | 210 | 1.0 | 3.0 | 0.00 | 0.22 | 0.21 | 13 | 1000.2 |
| 20260510015131 | 56 | 189 | 2.0 | 4.0 | 0.00 | 0.22 | 0.21 | 13 | 1000.0 |
| 20260510014040 | 57 | 201 | 2.0 | 8.0 | 0.00 | 0.22 | 0.21 | 15 | 999.7 |
| 20260510013039 | 57 | 216 | 2.0 | 4.0 | 0.00 | 0.22 | 0.21 | 13 | 999.5 |
| 20260510012039 | 57 | 192 | 3.0 | 5.0 | 0.00 | 0.22 | 0.21 | 12 | 999.3 |
| 20260510011038 | 57 | 215 | 3.0 | 5.0 | 0.00 | 0.22 | 0.21 | 9 | 999.3 |
| 20260510010037 | 57 | 219 | 2.0 | 7.0 | 0.00 | 0.22 | 0.21 | 9 | 999.3 |
| 20260510005107 | 57 | 197 | 3.0 | 7.0 | 0.00 | 0.22 | 0.21 | 6 | 999.3 |
| 20260510004036 | 57 | 204 | 4.0 | 16.0 | 0.00 | 0.22 | 0.21 | 3 | 999.3 |
| 20260510003146 | 57 | 181 | 3.0 | 8.0 | 0.00 | 0.24 | 0.21 | 3 | 999.3 |
| 20260510002035 | 57 | 206 | 2.0 | 11.0 | 0.00 | 0.25 | 0.21 | 2 | 999.1 |
| 20260510001034 | 57 | 204 | 2.0 | 5.0 | 0.00 | 0.25 | 0.21 | 6 | 999.0 |
| 20260510000104 | 57 | 176 | 2.0 | 7.0 | 0.01 | 0.25 | 0.21 | 11 | 999.0 |
| 20260509235103 | 57 | 270 | 1.0 | 4.0 | 0.04 | 0.25 | 0.21 | 14 | 999.0 |
| 20260509234052 | 57 | 205 | 1.0 | 4.0 | 0.09 | 0.25 | 0.21 | 17 | 998.7 |
| 20260509233052 | 57 | 212 | 2.0 | 7.0 | 0.18 | 0.25 | 0.21 | 17 | 998.9 |
| 20260509232031 | 57 | 163 | 3.0 | 10.0 | 0.21 | 0.25 | 0.21 | 21 | 998.8 |
| 20260509231030 | 57 | 163 | 4.0 | 7.0 | 0.21 | 0.25 | 0.21 | 27 | 999.0 |
| 20260509230030 | 57 | 219 | 3.0 | 10.0 | 0.20 | 0.24 | 0.20 | 34 | 999.6 |
| 20260509225029 | 58 | 237 | 3.0 | 8.0 | 0.17 | 0.21 | 0.17 | 42 | 999.7 |
| 20260509224028 | 60 | 256 | 5.0 | 14.0 | 0.12 | 0.16 | 0.12 | 50 | 999.7 |
| 20260509223048 | 65 | 197 | 6.0 | 19.0 | 0.03 | 0.07 | 0.03 | 58 | 999.4 |
| 20260509222027 | 69 | 252 | 4.0 | 11.0 | 0.00 | 0.04 | 0.00 | 52 | 997.2 |
| 20260509221056 | 69 | 189 | 4.0 | 8.0 | 0.00 | 0.04 | 0.00 | 51 | 996.4 |
| 20260509220025 | 70 | 161 | 6.0 | 14.0 | 0.00 | 0.04 | 0.00 | 51 | 996.3 |
| 20260509215054 | 70 | 216 | 7.0 | 18.0 | 0.00 | 0.04 | 0.00 | 52 | 996.2 |
| 20260509214024 | 70 | 183 | 8.0 | 21.0 | 0.00 | 0.04 | 0.00 | 52 | 996.1 |
| 20260509213052 | 70 | 201 | 4.0 | 10.0 | 0.00 | 0.04 | 0.00 | 53 | 995.8 |
| 20260509212052 | 71 | 182 | 6.0 | 14.0 | 0.00 | 0.04 | 0.00 | 52 | 995.9 |
| 20260509211051 | 71 | 174 | 7.0 | 16.0 | 0.00 | 0.04 | 0.00 | 51 | 996.1 |
| 20260509210020 | 71 | 190 | 7.0 | 16.0 | 0.00 | 0.04 | 0.00 | 52 | 996.0 |
| 20260509205049 | 71 | 179 | 7.0 | 14.0 | 0.00 | 0.04 | 0.00 | 53 | 996.6 |
| 20260509204048 | 71 | 192 | 7.0 | 14.0 | 0.00 | 0.04 | 0.00 | 52 | 996.8 |
| 20260509203047 | 71 | 196 | 7.0 | 15.0 | 0.00 | 0.04 | 0.00 | 52 | 996.9 |
| 20260509202046 | 71 | 178 | 5.0 | 14.0 | 0.00 | 0.04 | 0.00 | 53 | 996.8 |
| 20260509201045 | 71 | 176 | 6.0 | 14.0 | 0.00 | 0.04 | 0.00 | 53 | 997.3 |
| 20260509200045 | 71 | 190 | 6.0 | 19.0 | 0.00 | 0.04 | 0.00 | 53 | 997.4 |
| 20260509195044 | 72 | 185 | 6.0 | 15.0 | 0.00 | 0.04 | 0.00 | 51 | 997.5 |
| 20260509194043 | 72 | 163 | 7.0 | 19.0 | 0.00 | 0.04 | 0.00 | 52 | 997.6 |
| 20260509193042 | 72 | 203 | 8.0 | 18.0 | 0.00 | 0.04 | 0.00 | 53 | 997.7 |
| 20260509192102 | 70 | 180 | 5.0 | 12.0 | 0.00 | 0.04 | 0.00 | 54 | 997.8 |
| 20260509191041 | 71 | 188 | 7.0 | 14.0 | 0.00 | 0.04 | 0.00 | 54 | 998.2 |
| 20260509190040 | 71 | 197 | 5.0 | 12.0 | 0.00 | 0.04 | 0.00 | 54 | 998.2 |
| 20260509185040 | 71 | 194 | 6.0 | 12.0 | 0.00 | 0.04 | 0.00 | 54 | 998.4 |
| 20260509184039 | 71 | 200 | 5.0 | 12.0 | 0.00 | 0.04 | 0.00 | 54 | 998.3 |
| 20260509183039 | 72 | 157 | 6.0 | 15.0 | 0.00 | 0.04 | 0.00 | 54 | 998.4 |
| 20260509182038 | 71 | 174 | 5.0 | 18.0 | 0.00 | 0.04 | 0.00 | 56 | 998.2 |
| 20260509181057 | 70 | 195 | 5.0 | 11.0 | 0.00 | 0.04 | 0.00 | 56 | 998.3 |
| 20260509180036 | 70 | 192 | 4.0 | 12.0 | 0.00 | 0.04 | 0.00 | 57 | 998.4 |
| 20260509175035 | 70 | 219 | 6.0 | 15.0 | 0.00 | 0.04 | 0.00 | 57 | 998.5 |
| 20260509174035 | 69 | 153 | 7.0 | 16.0 | 0.00 | 0.04 | 0.00 | 57 | 998.5 |
| 20260509173034 | 68 | 208 | 5.0 | 11.0 | 0.00 | 0.04 | 0.00 | 56 | 998.5 |
| 20260509172053 | 68 | 214 | 4.0 | 10.0 | 0.00 | 0.04 | 0.00 | 52 | 998.7 |
| 20260509171103 | 67 | 226 | 3.0 | 7.0 | 0.00 | 0.04 | 0.00 | 52 | 998.7 |
| 20260509170052 | 68 | 245 | 4.0 | 8.0 | 0.00 | 0.04 | 0.00 | 49 | 998.9 |
| 20260509165031 | 67 | 222 | 5.0 | 10.0 | 0.00 | 0.04 | 0.00 | 52 | 999.1 |
| 20260509164030 | 67 | 218 | 4.0 | 12.0 | 0.00 | 0.04 | 0.00 | 47 | 999.3 |
| 20260509163030 | 66 | 234 | 3.0 | 8.0 | 0.00 | 0.04 | 0.00 | 45 | 999.1 |
| 20260509162029 | 65 | 216 | 5.0 | 12.0 | 0.00 | 0.04 | 0.00 | 47 | 999.1 |
| 20260509161028 | 65 | 170 | 5.0 | 15.0 | 0.00 | 0.04 | 0.00 | 40 | 999.6 |
| 20260509160108 | 64 | 213 | 6.0 | 10.0 | 0.00 | 0.04 | 0.00 | 39 | 999.8 |
| 20260509155027 | 64 | 214 | 6.0 | 14.0 | 0.00 | 0.04 | 0.00 | 36 | 1000.0 |
| 20260509154026 | 63 | 227 | 4.0 | 11.0 | 0.00 | 0.04 | 0.00 | 31 | 1000.0 |
| 20260509153025 | 63 | 221 | 5.0 | 11.0 | 0.00 | 0.04 | 0.00 | 31 | 999.7 |
| 20260509152024 | 62 | 227 | 7.0 | 15.0 | 0.00 | 0.04 | 0.00 | 27 | 999.9 |
| 20260509151114 | 62 | 211 | 4.0 | 10.0 | 0.00 | 0.04 | 0.00 | 23 | 999.9 |
| 20260509150053 | 62 | 242 | 4.0 | 12.0 | 0.00 | 0.04 | 0.00 | 23 | 999.8 |
| 20260509145113 | 62 | 230 | 4.0 | 8.0 | 0.00 | 0.04 | 0.00 | 19 | 1000.0 |
| 20260509144021 | 61 | 216 | 3.0 | 8.0 | 0.00 | 0.04 | 0.00 | 12 | 999.8 |
| 20260509143020 | 60 | 223 | 5.0 | 14.0 | 0.00 | 0.04 | 0.00 | 9 | 1000.0 |
| 20260509142020 | 59 | 202 | 6.0 | 15.0 | 0.00 | 0.04 | 0.00 | 9 | 999.9 |
| 20260509141129 | 58 | 205 | 5.0 | 11.0 | 0.00 | 0.04 | 0.00 | 8 | 1000.0 |
| 20260509140128 | 59 | 201 | 3.0 | 11.0 | 0.00 | 0.04 | 0.00 | 2 | 999.9 |
| 20260509135047 | 58 | 229 | 3.0 | 8.0 | 0.00 | 0.04 | 0.00 | 1 | 999.9 |
| 20260509134046 | 58 | 220 | 2.0 | 3.0 | 0.00 | 0.04 | 0.00 | 1 | 1000.1 |
| 20260509133044 | 58 | 178 | 3.0 | 5.0 | 0.00 | 0.04 | 0.00 | 1 | 1000.0 |
| 20260509132044 | 57 | 206 | 2.0 | 4.0 | 0.00 | 0.04 | 0.00 | 1 | 1000.0 |
| 20260509131043 | 57 | 189 | 3.0 | 7.0 | 0.00 | 0.04 | 0.00 | 1 | 1000.2 |
| 20260509130042 | 57 | 195 | 2.0 | 4.0 | 0.00 | 0.04 | 0.00 | 1 | 1000.1 |
| 20260509125041 | 57 | 163 | 2.0 | 7.0 | 0.00 | 0.04 | 0.00 | 1 | 1000.1 |
| 20260509124040 | 56 | 177 | 2.0 | 4.0 | 0.00 | 0.04 | 0.00 | 1 | 1000.0 |
| 20260509123040 | 56 | 192 | 3.0 | 7.0 | 0.00 | 0.04 | 0.00 | 1 | 1000.1 |
| 20260509122039 | 56 | 191 | 3.0 | 5.0 | 0.00 | 0.04 | 0.00 | 1 | 1000.3 |
| 20260509121058 | 55 | 183 | 2.0 | 5.0 | 0.00 | 0.04 | 0.00 | 1 | 1000.3 |
| 20260509120038 | 55 | 184 | 2.0 | 5.0 | 0.00 | 0.04 | 0.00 | 1 | 1000.3 |
| 20260509115037 | 55 | 192 | 1.0 | 4.0 | 0.00 | 0.04 | 0.00 | 1 | 1000.4 |
| 20260509114106 | 55 | 148 | 2.0 | 7.0 | 0.00 | 0.04 | 0.00 | 1 | 1000.4 |
| 20260509113036 | 55 | 178 | 1.0 | 5.0 | 0.00 | 0.04 | 0.00 | 1 | 1000.2 |
| 20260509112035 | 54 | 182 | 3.0 | 4.0 | 0.00 | 0.04 | 0.00 | 1 | 1000.2 |
| 20260509111035 | 54 | 181 | 2.0 | 4.0 | 0.00 | 0.04 | 0.00 | 1 | 1000.1 |
| 20260509110033 | 54 | 157 | 2.0 | 7.0 | 0.00 | 0.04 | 0.00 | 1 | 1000.1 |
| 20260509105033 | 54 | 192 | 0.0 | 3.0 | 0.00 | 0.04 | 0.00 | 1 | 1000.1 |
| 20260509104143 | 54 | 140 | 1.0 | 3.0 | 0.00 | 0.04 | 0.00 | 1 | 1000.1 |
| 20260509103032 | 54 | 201 | 1.0 | 4.0 | 0.00 | 0.04 | 0.00 | 1 | 1000.3 |
| 20260509102030 | 54 | 174 | 1.0 | 4.0 | 0.00 | 0.04 | 0.00 | 1 | 1000.1 |
| 20260509101050 | 53 | 218 | 0.0 | 3.0 | 0.00 | 0.04 | 0.00 | 1 | 1000.3 |
| 20260509100059 | 53 | 193 | 1.0 | 3.0 | 0.00 | 0.04 | 0.00 | 1 | 1000.3 |
| 20260509095028 | 53 | 225 | 0.0 | 1.0 | 0.00 | 0.04 | 0.00 | 1 | 1000.4 |
| 20260509094217 | 54 | 0.0 | 0.0 | 0.00 | 0.04 | 0.00 | 1 | 1000.3 | |
| 20260509093026 | 54 | 225 | 0.0 | 1.0 | 0.00 | 0.04 | 0.00 | 1 | 1000.1 |
| 20260509092055 | 54 | 165 | 1.0 | 4.0 | 0.00 | 0.04 | 0.00 | 1 | 1000.4 |
| 20260509091025 | 54 | 190 | 1.0 | 5.0 | 0.00 | 0.04 | 0.00 | 1 | 1000.3 |
| 20260509090024 | 54 | 170 | 1.0 | 4.0 | 0.00 | 0.04 | 0.00 | 1 | 1000.5 |
| 20260509085052 | 54 | 131 | 1.0 | 3.0 | 0.00 | 0.04 | 0.00 | 1 | 1000.6 |
| 20260509084022 | 54 | 174 | 2.0 | 5.0 | 0.00 | 0.04 | 0.00 | 1 | 1000.7 |
| 20260509083051 | 54 | 175 | 2.0 | 5.0 | 0.00 | 0.04 | 0.00 | 1 | 1001.0 |
| 20260509082110 | 54 | 190 | 2.0 | 5.0 | 0.00 | 0.04 | 0.00 | 1 | 1000.7 |
| 20260509081049 | 54 | 166 | 2.0 | 5.0 | 0.00 | 0.04 | 0.00 | 1 | 1000.8 |
| 20260509080018 | 54 | 172 | 1.0 | 4.0 | 0.00 | 0.04 | 0.00 | 1 | 1000.7 |
| 20260509075048 | 54 | 180 | 1.0 | 4.0 | 0.00 | 0.04 | 0.00 | 1 | 1000.7 |
| 20260509074047 | 54 | 174 | 1.0 | 3.0 | 0.00 | 0.04 | 0.00 | 1 | 1000.7 |
| 20260509073045 | 53 | 142 | 2.0 | 5.0 | 0.00 | 0.04 | 0.00 | 1 | 1000.8 |
| 20260509072044 | 53 | 191 | 1.0 | 5.0 | 0.00 | 0.04 | 0.00 | 1 | 1000.9 |
| 20260509071043 | 53 | 187 | 1.0 | 5.0 | 0.00 | 0.04 | 0.00 | 1 | 1001.1 |
| 20260509065042 | 53 | 168 | 1.0 | 3.0 | 0.00 | 0.04 | 0.00 | 1 | 1001.1 |
| 20260509064041 | 53 | 176 | 3.0 | 8.0 | 0.00 | 0.04 | 0.00 | 1 | 1001.3 |
| 20260509063040 | 53 | 184 | 3.0 | 10.0 | 0.00 | 0.04 | 0.00 | 1 | 1001.3 |
| 20260509062040 | 53 | 137 | 3.0 | 7.0 | 0.00 | 0.04 | 0.00 | 1 | 1001.3 |
| 20260509061039 | 53 | 173 | 3.0 | 8.0 | 0.00 | 0.04 | 0.00 | 1 | 1001.4 |
| 20260509060058 | 54 | 169 | 2.0 | 5.0 | 0.00 | 0.04 | 0.00 | 1 | 1001.5 |
| 20260509055038 | 54 | 187 | 2.0 | 7.0 | 0.00 | 0.04 | 0.00 | 1 | 1001.5 |
| 20260509054037 | 54 | 185 | 2.0 | 5.0 | 0.00 | 0.04 | 0.00 | 1 | 1001.6 |
| 20260509053036 | 54 | 187 | 2.0 | 5.0 | 0.00 | 0.04 | 0.00 | 1 | 1001.5 |
| 20260509052035 | 54 | 200 | 3.0 | 7.0 | 0.00 | 0.04 | 0.00 | 1 | 1001.8 |
| 20260509051105 | 54 | 199 | 3.0 | 7.0 | 0.00 | 0.04 | 0.00 | 1 | 1002.0 |
| 20260509050034 | 54 | 193 | 1.0 | 5.0 | 0.00 | 0.04 | 0.00 | 1 | 1001.9 |
| 20260509045033 | 54 | 201 | 1.0 | 4.0 | 0.00 | 0.04 | 0.00 | 1 | 1002.1 |
| 20260509044053 | 54 | 159 | 2.0 | 7.0 | 0.00 | 0.04 | 0.00 | 1 | 1002.1 |